Time,TemperatureF,DewpointF,PressureIn,WindDirection,WindDirectionDegrees,WindSpeedMPH,WindSpeedGustMPH,Humidity,HourlyPrecipIn,Conditions,Clouds,dailyrainin,SoftwareType,DateUTC
2013-09-25 00:01:00,53.2,0.0,29.97,WSW,242,0.0,3.0,0,0.00,,---,0.00,VWS V14.01,2013-09-25 04:01:00,
2013-09-25 00:06:00,53.1,0.0,29.97,WSW,250,1.0,1.0,0,0.00,,---,0.00,VWS V14.01,2013-09-25 04:06:00,
2013-09-25 00:11:00,53.0,0.0,29.97,WSW,256,1.0,1.0,0,0.00,,---,0.00,VWS V14.01,2013-09-25 04:11:00,
2013-09-25 00:16:00,53.0,0.0,29.98,WSW,239,0.0,1.0,0,0.00,,---,0.00,VWS V14.01,2013-09-25 04:16:00,
2013-09-25 00:21:00,52.9,0.0,29.98,WSW,238,0.0,1.0,0,0.00,,---,0.00,VWS V14.01,2013-09-25 04:21:00,
2013-09-25 00:26:00,52.8,0.0,29.97,WSW,240,1.0,1.0,0,0.00,,---,0.00,VWS V14.01,2013-09-25 04:26:00,
2013-09-25 00:31:00,52.7,0.0,29.97,WSW,243,0.0,0.0,0,0.00,,---,0.00,VWS V14.01,2013-09-25 04:31:00,
2013-09-25 00:36:00,52.7,0.0,29.97,WSW,243,0.0,0.0,0,0.00,,---,0.00,VWS V14.01,2013-09-25 04:36:00,
2013-09-25 00:41:00,52.6,0.0,29.97,SW,221,0.0,1.0,0,0.00,,---,0.00,VWS V14.01,2013-09-25 04:41:00,
2013-09-25 00:46:00,52.5,0.0,29.97,SW,221,0.0,1.0,0,0.00,,---,0.00,VWS V14.01,2013-09-25 04:46:00,
2013-09-25 00:51:00,52.5,0.0,29.97,SW,224,0.0,1.0,0,0.00,,---,0.00,VWS V14.01,2013-09-25 04:51:00,
2013-09-25 00:56:00,52.4,0.0,29.97,West,260,0.0,1.0,0,0.00,,---,0.00,VWS V14.01,2013-09-25 04:56:00,
2013-09-25 01:01:00,52.4,0.0,29.96,West,259,0.0,0.0,0,0.00,,---,0.00,VWS V14.01,2013-09-25 05:01:00,
2013-09-25 01:06:00,52.4,0.0,29.96,WSW,242,0.0,1.0,0,0.00,,---,0.00,VWS V14.01,2013-09-25 05:06:00,
2013-09-25 01:11:00,52.3,0.0,29.96,WSW,241,0.0,1.0,0,0.00,,---,0.00,VWS V14.01,2013-09-25 05:11:00,
2013-09-25 01:16:00,52.2,0.0,29.96,West,267,0.0,1.0,0,0.00,,---,0.00,VWS V14.01,2013-09-25 05:16:00,
2013-09-25 01:21:00,52.2,0.0,29.96,NW,323,0.0,1.0,0,0.00,,---,0.00,VWS V14.01,2013-09-25 05:21:00,
2013-09-25 01:26:00,52.2,0.0,29.96,NW,322,0.0,1.0,0,0.00,,---,0.00,VWS V14.01,2013-09-25 05:26:00,
2013-09-25 01:31:00,52.2,0.0,29.96,NW,321,0.0,0.0,0,0.00,,---,0.00,VWS V14.01,2013-09-25 05:31:00,
2013-09-25 01:36:00,52.1,0.0,29.96,NW,321,0.0,0.0,0,0.00,,---,0.00,VWS V14.01,2013-09-25 05:36:00,
2013-09-25 01:41:00,52.1,0.0,29.96,WSW,255,0.0,1.0,0,0.00,,---,0.00,VWS V14.01,2013-09-25 05:41:00,
2013-09-25 01:46:00,52.0,0.0,29.95,WSW,257,0.0,1.0,0,0.00,,---,0.00,VWS V14.01,2013-09-25 05:46:00,
2013-09-25 01:51:00,52.0,0.0,29.95,WSW,257,0.0,1.0,0,0.00,,---,0.00,VWS V14.01,2013-09-25 05:51:00,
2013-09-25 01:56:00,51.8,0.0,29.95,WSW,257,0.0,1.0,0,0.00,,---,0.00,VWS V14.01,2013-09-25 05:56:00,
2013-09-25 02:01:00,51.7,0.0,29.95,WSW,257,0.0,0.0,0,0.00,,---,0.00,VWS V14.01,2013-09-25 06:01:00,
2013-09-25 02:06:00,51.6,0.0,29.95,WSW,257,0.0,0.0,0,0.00,,---,0.00,VWS V14.01,2013-09-25 06:06:00,
2013-09-25 02:11:00,51.4,0.0,29.95,WSW,257,0.0,0.0,0,0.00,,---,0.00,VWS V14.01,2013-09-25 06:11:00,
2013-09-25 02:16:00,51.3,0.0,29.95,WSW,257,0.0,0.0,0,0.00,,---,0.00,VWS V14.01,2013-09-25 06:16:00,
2013-09-25 02:21:00,51.2,0.0,29.95,WSW,257,0.0,0.0,0,0.00,,---,0.00,VWS V14.01,2013-09-25 06:21:00,
2013-09-25 02:26:00,51.2,0.0,29.95,WSW,257,0.0,0.0,0,0.00,,---,0.00,VWS V14.01,2013-09-25 06:26:00,
2013-09-25 02:31:00,51.3,0.0,29.95,WSW,257,0.0,0.0,0,0.00,,---,0.00,VWS V14.01,2013-09-25 06:31:00,
2013-09-25 02:36:00,51.3,0.0,29.95,WSW,257,0.0,0.0,0,0.00,,---,0.00,VWS V14.01,2013-09-25 06:36:00,
2013-09-25 02:41:00,51.1,0.0,29.95,WSW,257,0.0,0.0,0,0.00,,---,0.00,VWS V14.01,2013-09-25 06:41:00,
2013-09-25 02:46:00,51.1,0.0,29.95,WSW,257,0.0,0.0,0,0.00,,---,0.00,VWS V14.01,2013-09-25 06:46:00,
2013-09-25 02:51:00,51.1,0.0,29.95,WSW,257,0.0,0.0,0,0.00,,---,0.00,VWS V14.01,2013-09-25 06:51:00,
2013-09-25 02:56:00,51.2,0.0,29.95,West,259,0.0,0.0,0,0.00,,---,0.00,VWS V14.01,2013-09-25 06:56:00,
2013-09-25 03:01:00,51.3,0.0,29.95,West,260,0.0,0.0,0,0.00,,---,0.00,VWS V14.01,2013-09-25 07:01:00,
2013-09-25 03:06:00,51.4,0.0,29.95,West,260,0.0,0.0,0,0.00,,---,0.00,VWS V14.01,2013-09-25 07:06:00,
2013-09-25 03:11:00,51.3,0.0,29.95,West,260,0.0,0.0,0,0.00,,---,0.00,VWS V14.01,2013-09-25 07:11:00,
2013-09-25 03:16:00,51.3,0.0,29.95,West,260,0.0,0.0,0,0.00,,---,0.00,VWS V14.01,2013-09-25 07:16:00,
2013-09-25 03:21:00,51.2,0.0,29.94,West,260,0.0,0.0,0,0.00,,---,0.00,VWS V14.01,2013-09-25 07:21:00,
2013-09-25 03:26:00,51.0,0.0,29.94,West,260,0.0,0.0,0,0.00,,---,0.00,VWS V14.01,2013-09-25 07:26:00,
2013-09-25 03:31:00,50.9,0.0,29.94,West,260,0.0,0.0,0,0.00,,---,0.00,VWS V14.01,2013-09-25 07:31:00,
2013-09-25 03:36:00,50.8,0.0,29.94,West,260,0.0,0.0,0,0.00,,---,0.00,VWS V14.01,2013-09-25 07:36:00,
2013-09-25 03:41:00,50.8,0.0,29.94,West,260,0.0,0.0,0,0.00,,---,0.00,VWS V14.01,2013-09-25 07:41:00,
2013-09-25 03:46:00,50.8,0.0,29.94,West,260,0.0,0.0,0,0.00,,---,0.00,VWS V14.01,2013-09-25 07:46:00,
2013-09-25 03:51:00,50.7,0.0,29.94,West,260,0.0,0.0,0,0.00,,---,0.00,VWS V14.01,2013-09-25 07:51:00,
2013-09-25 03:56:00,50.6,0.0,29.93,West,260,0.0,0.0,0,0.00,,---,0.00,VWS V14.01,2013-09-25 07:56:00,
2013-09-25 04:01:00,50.6,0.0,29.93,West,260,0.0,0.0,0,0.00,,---,0.00,VWS V14.01,2013-09-25 08:01:00,
2013-09-25 04:06:00,50.6,0.0,29.93,West,260,0.0,0.0,0,0.00,,---,0.00,VWS V14.01,2013-09-25 08:06:00,
2013-09-25 04:11:00,50.4,0.0,29.93,West,260,0.0,0.0,0,0.00,,---,0.00,VWS V14.01,2013-09-25 08:11:00,
2013-09-25 04:16:00,50.3,0.0,29.93,West,260,0.0,0.0,0,0.00,,---,0.00,VWS V14.01,2013-09-25 08:16:00,
2013-09-25 04:22:00,50.1,0.0,29.93,West,260,0.0,0.0,0,0.00,,---,0.00,VWS V14.01,2013-09-25 08:22:00,
2013-09-25 04:27:00,49.9,0.0,29.93,West,260,0.0,0.0,0,0.00,,---,0.00,VWS V14.01,2013-09-25 08:27:00,
2013-09-25 04:32:00,49.8,0.0,29.92,West,260,0.0,0.0,0,0.00,,---,0.00,VWS V14.01,2013-09-25 08:32:00,
2013-09-25 04:37:00,49.8,0.0,29.92,West,260,0.0,0.0,0,0.00,,---,0.00,VWS V14.01,2013-09-25 08:37:00,
2013-09-25 04:42:00,49.9,0.0,29.92,West,260,0.0,0.0,0,0.00,,---,0.00,VWS V14.01,2013-09-25 08:42:00,
2013-09-25 04:47:00,50.0,0.0,29.92,West,260,0.0,0.0,0,0.00,,---,0.00,VWS V14.01,2013-09-25 08:47:00,
2013-09-25 04:52:00,49.9,0.0,29.92,West,260,0.0,0.0,0,0.00,,---,0.00,VWS V14.01,2013-09-25 08:52:00,
2013-09-25 04:57:00,49.8,0.0,29.92,West,260,0.0,0.0,0,0.00,,---,0.00,VWS V14.01,2013-09-25 08:57:00,
2013-09-25 05:02:00,49.9,0.0,29.92,West,260,0.0,0.0,0,0.00,,---,0.00,VWS V14.01,2013-09-25 09:02:00,
2013-09-25 05:07:00,49.8,0.0,29.92,West,260,0.0,0.0,0,0.00,,---,0.00,VWS V14.01,2013-09-25 09:07:00,
2013-09-25 05:12:00,49.8,0.0,29.92,West,260,0.0,0.0,0,0.00,,---,0.00,VWS V14.01,2013-09-25 09:12:00,
2013-09-25 05:17:00,49.7,0.0,29.92,West,260,0.0,0.0,0,0.00,,---,0.00,VWS V14.01,2013-09-25 09:17:00,
2013-09-25 05:22:00,49.2,0.0,29.92,West,260,0.0,0.0,0,0.00,,---,0.00,VWS V14.01,2013-09-25 09:22:00,
2013-09-25 05:27:00,49.2,0.0,29.92,West,260,0.0,0.0,0,0.00,,---,0.00,VWS V14.01,2013-09-25 09:27:00,
2013-09-25 05:32:00,49.2,0.0,29.92,West,260,0.0,0.0,0,0.00,,---,0.00,VWS V14.01,2013-09-25 09:32:00,
2013-09-25 05:37:00,49.2,0.0,29.92,West,260,0.0,0.0,0,0.00,,---,0.00,VWS V14.01,2013-09-25 09:37:00,
2013-09-25 05:42:00,49.2,0.0,29.92,West,260,0.0,0.0,0,0.00,,---,0.00,VWS V14.01,2013-09-25 09:42:00,
2013-09-25 05:47:00,49.2,0.0,29.92,West,260,0.0,0.0,0,0.00,,---,0.00,VWS V14.01,2013-09-25 09:47:00,
2013-09-25 05:52:00,49.2,0.0,29.92,West,260,0.0,0.0,0,0.00,,---,0.00,VWS V14.01,2013-09-25 09:52:00,
2013-09-25 05:57:00,49.2,0.0,29.92,West,260,0.0,0.0,0,0.00,,---,0.00,VWS V14.01,2013-09-25 09:57:00,
2013-09-25 06:02:00,49.2,0.0,29.92,West,260,0.0,0.0,0,0.00,,---,0.00,VWS V14.01,2013-09-25 10:02:00,
2013-09-25 06:07:00,49.2,0.0,29.92,West,260,0.0,0.0,0,0.00,,---,0.00,VWS V14.01,2013-09-25 10:07:00,
2013-09-25 06:12:00,49.2,0.0,29.92,West,260,0.0,0.0,0,0.00,,---,0.00,VWS V14.01,2013-09-25 10:12:00,
2013-09-25 06:17:00,49.2,0.0,29.92,West,260,0.0,0.0,0,0.00,,---,0.00,VWS V14.01,2013-09-25 10:17:00,
2013-09-25 06:22:00,49.2,0.0,29.92,West,260,0.0,0.0,0,0.00,,---,0.00,VWS V14.01,2013-09-25 10:22:00,
2013-09-25 06:27:00,49.2,0.0,29.92,West,260,0.0,0.0,0,0.00,,---,0.00,VWS V14.01,2013-09-25 10:27:00,
2013-09-25 06:32:00,49.2,0.0,29.91,West,260,0.0,0.0,0,0.00,,---,0.00,VWS V14.01,2013-09-25 10:32:00,
2013-09-25 06:37:00,49.2,0.0,29.92,West,260,0.0,0.0,0,0.00,,---,0.00,VWS V14.01,2013-09-25 10:37:00,
2013-09-25 06:42:00,49.2,0.0,29.91,West,260,0.0,0.0,0,0.00,,---,0.00,VWS V14.01,2013-09-25 10:42:00,
2013-09-25 06:47:00,49.2,0.0,29.91,West,260,0.0,0.0,0,0.00,,---,0.00,VWS V14.01,2013-09-25 10:47:00,
2013-09-25 06:52:00,49.2,0.0,29.91,West,260,0.0,0.0,0,0.00,,---,0.00,VWS V14.01,2013-09-25 10:52:00,
2013-09-25 06:57:00,49.2,0.0,29.92,West,260,0.0,0.0,0,0.00,,---,0.00,VWS V14.01,2013-09-25 10:57:00,
2013-09-25 07:02:00,49.2,0.0,29.92,West,260,0.0,0.0,0,0.00,,---,0.00,VWS V14.01,2013-09-25 11:02:00,
2013-09-25 07:07:00,49.2,0.0,29.92,West,260,0.0,0.0,0,0.00,,---,0.00,VWS V14.01,2013-09-25 11:07:00,
2013-09-25 07:12:00,49.2,0.0,29.92,West,260,0.0,0.0,0,0.00,,---,0.00,VWS V14.01,2013-09-25 11:12:00,
2013-09-25 07:17:00,49.2,0.0,29.92,West,260,0.0,0.0,0,0.00,,---,0.00,VWS V14.01,2013-09-25 11:17:00,
2013-09-25 07:22:00,49.2,0.0,29.92,West,260,0.0,0.0,0,0.00,,---,0.00,VWS V14.01,2013-09-25 11:22:00,
2013-09-25 07:27:00,49.2,0.0,29.92,West,260,0.0,0.0,0,0.00,,---,0.00,VWS V14.01,2013-09-25 11:27:00,
2013-09-25 07:32:00,49.2,0.0,29.92,West,260,0.0,0.0,0,0.00,,---,0.00,VWS V14.01,2013-09-25 11:32:00,
2013-09-25 07:37:00,49.2,0.0,29.93,West,260,0.0,0.0,0,0.00,,---,0.00,VWS V14.01,2013-09-25 11:37:00,
2013-09-25 07:42:00,49.2,0.0,29.93,West,260,0.0,0.0,0,0.00,,---,0.00,VWS V14.01,2013-09-25 11:42:00,
2013-09-25 07:47:00,49.2,0.0,29.92,West,260,0.0,0.0,0,0.00,,---,0.00,VWS V14.01,2013-09-25 11:47:00,
2013-09-25 07:52:00,49.9,0.0,29.92,NNW,327,0.0,0.0,0,0.00,,---,0.00,VWS V14.01,2013-09-25 11:52:00,
2013-09-25 07:57:00,50.7,0.0,29.93,NNW,329,0.0,0.0,0,0.00,,---,0.00,VWS V14.01,2013-09-25 11:57:00,
2013-09-25 08:02:00,51.5,0.0,29.93,NNW,329,0.0,0.0,0,0.00,,---,0.00,VWS V14.01,2013-09-25 12:02:00,
2013-09-25 08:07:00,52.7,0.0,29.94,NNW,328,0.0,0.0,0,0.00,,---,0.00,VWS V14.01,2013-09-25 12:07:00,
2013-09-25 08:12:00,53.4,0.0,29.94,NNW,328,0.0,0.0,0,0.00,,---,0.00,VWS V14.01,2013-09-25 12:12:00,
2013-09-25 08:17:00,54.0,0.0,29.94,NNW,329,0.0,0.0,0,0.00,,---,0.00,VWS V14.01,2013-09-25 12:17:00,
2013-09-25 08:22:00,54.9,0.0,29.94,NNW,329,0.0,0.0,0,0.00,,---,0.00,VWS V14.01,2013-09-25 12:22:00,
2013-09-25 08:27:00,55.7,0.0,29.94,NNW,328,0.0,0.0,0,0.00,,---,0.00,VWS V14.01,2013-09-25 12:27:00,
2013-09-25 08:32:00,57.1,0.0,29.94,NNW,328,0.0,0.0,0,0.00,,---,0.00,VWS V14.01,2013-09-25 12:32:00,
2013-09-25 08:37:00,57.2,0.0,29.94,SE,136,1.0,1.0,0,0.00,,---,0.00,VWS V14.01,2013-09-25 12:37:00,
2013-09-25 08:42:00,57.2,0.0,29.95,SE,132,1.0,2.0,0,0.00,,---,0.00,VWS V14.01,2013-09-25 12:42:00,
2013-09-25 08:47:00,57.3,0.0,29.95,SE,127,1.0,2.0,0,0.00,,---,0.00,VWS V14.01,2013-09-25 12:47:00,
2013-09-25 08:52:00,57.7,0.0,29.95,SSE,149,1.0,2.0,0,0.00,,---,0.00,VWS V14.01,2013-09-25 12:52:00,
2013-09-25 08:57:00,57.9,0.0,29.95,ESE,117,1.0,2.0,0,0.00,,---,0.00,VWS V14.01,2013-09-25 12:57:00,
2013-09-25 09:02:00,58.0,0.0,29.95,SE,136,2.0,2.0,0,0.00,,---,0.00,VWS V14.01,2013-09-25 13:02:00,
2013-09-25 09:07:00,58.4,0.0,29.95,SE,145,1.0,2.0,0,0.00,,---,0.00,VWS V14.01,2013-09-25 13:07:00,
2013-09-25 09:12:00,59.0,0.0,29.96,SE,139,2.0,2.0,0,0.00,,---,0.00,VWS V14.01,2013-09-25 13:12:00,
2013-09-25 09:17:00,59.7,0.0,29.96,SE,146,1.0,2.0,0,0.00,,---,0.00,VWS V14.01,2013-09-25 13:17:00,
2013-09-25 09:22:00,60.1,0.0,29.95,SE,144,1.0,3.0,0,0.00,,---,0.00,VWS V14.01,2013-09-25 13:22:00,
2013-09-25 09:27:00,60.5,0.0,29.95,SE,132,0.0,3.0,0,0.00,,---,0.00,VWS V14.01,2013-09-25 13:27:00,
2013-09-25 09:32:00,60.9,0.0,29.95,SE,129,1.0,1.0,0,0.00,,---,0.00,VWS V14.01,2013-09-25 13:32:00,
2013-09-25 09:37:00,61.6,0.0,29.95,SE,130,0.0,1.0,0,0.00,,---,0.00,VWS V14.01,2013-09-25 13:37:00,
2013-09-25 09:42:00,62.1,0.0,29.95,SE,128,0.0,2.0,0,0.00,,---,0.00,VWS V14.01,2013-09-25 13:42:00,
2013-09-25 09:47:00,62.5,0.0,29.95,West,264,0.0,3.0,0,0.00,,---,0.00,VWS V14.01,2013-09-25 13:47:00,
2013-09-25 09:52:00,62.8,0.0,29.95,ESE,105,1.0,3.0,0,0.00,,---,0.00,VWS V14.01,2013-09-25 13:52:00,
2013-09-25 09:57:00,63.0,0.0,29.95,ESE,105,2.0,3.0,0,0.00,,---,0.00,VWS V14.01,2013-09-25 13:57:00,
2013-09-25 10:02:00,63.2,0.0,29.95,ESE,118,3.0,3.0,0,0.00,,---,0.00,VWS V14.01,2013-09-25 14:02:00,
2013-09-25 10:07:00,63.5,0.0,29.95,SE,142,0.0,4.0,0,0.00,,---,0.00,VWS V14.01,2013-09-25 14:07:00,
2013-09-25 10:12:00,64.1,0.0,29.95,North,360,1.0,4.0,0,0.00,,---,0.00,VWS V14.01,2013-09-25 14:12:00,
2013-09-25 10:17:00,64.2,-38.5,29.95,East,101,1.0,4.0,1,0.00,,---,0.00,VWS V14.01,2013-09-25 14:17:00,
2013-09-25 10:22:00,64.0,8.5,29.95,SE,125,1.0,4.0,11,0.00,,---,0.00,VWS V14.01,2013-09-25 14:22:00,
2013-09-25 10:27:00,64.2,-1.2,29.95,SE,139,1.0,4.0,7,0.00,,---,0.00,VWS V14.01,2013-09-25 14:27:00,
2013-09-25 10:32:00,64.6,-12.4,29.95,East,87,0.0,2.0,4,0.00,,---,0.00,VWS V14.01,2013-09-25 14:32:00,
2013-09-25 10:37:00,64.7,28.1,29.95,SE,134,0.0,4.0,25,0.00,,---,0.00,VWS V14.01,2013-09-25 14:37:00,
2013-09-25 10:42:00,64.7,25.0,29.95,East,83,2.0,4.0,22,0.00,,---,0.00,VWS V14.01,2013-09-25 14:42:00,
2013-09-25 10:47:00,64.8,33.5,29.95,NNW,348,0.0,4.0,31,0.00,,---,0.00,VWS V14.01,2013-09-25 14:47:00,
2013-09-25 10:52:00,65.1,32.1,29.95,ESE,114,2.0,4.0,29,0.00,,---,0.00,VWS V14.01,2013-09-25 14:52:00,
2013-09-25 10:57:00,65.0,37.4,29.94,ESE,104,0.0,4.0,36,0.00,,---,0.00,VWS V14.01,2013-09-25 14:57:00,
2013-09-25 11:02:00,65.3,37.7,29.94,East,86,3.0,4.0,36,0.00,,---,0.00,VWS V14.01,2013-09-25 15:02:00,
2013-09-25 11:07:00,65.2,44.5,29.94,ENE,66,0.0,4.0,47,0.00,,---,0.00,VWS V14.01,2013-09-25 15:07:00,
2013-09-25 11:12:00,65.4,42.9,29.94,ESE,104,1.0,4.0,44,0.00,,---,0.00,VWS V14.01,2013-09-25 15:12:00,
2013-09-25 11:17:00,65.4,46.8,29.93,ESE,103,0.0,4.0,51,0.00,,---,0.00,VWS V14.01,2013-09-25 15:17:00,
2013-09-25 11:22:00,65.6,46.0,29.93,WNW,296,1.0,4.0,49,0.00,,---,0.00,VWS V14.01,2013-09-25 15:22:00,
2013-09-25 11:27:00,65.9,46.8,29.93,ENE,75,1.0,4.0,50,0.00,,---,0.00,VWS V14.01,2013-09-25 15:27:00,
2013-09-25 11:32:00,66.0,47.9,29.93,East,96,0.0,1.0,52,0.00,,---,0.00,VWS V14.01,2013-09-25 15:32:00,
2013-09-25 11:37:00,66.4,47.2,29.93,NE,54,2.0,4.0,50,0.00,,---,0.00,VWS V14.01,2013-09-25 15:37:00,
2013-09-25 11:42:00,66.9,49.2,29.93,NW,304,0.0,4.0,53,0.00,,---,0.00,VWS V14.01,2013-09-25 15:42:00,
2013-09-25 11:47:00,67.4,49.7,29.93,ESE,103,2.0,4.0,53,0.00,,---,0.00,VWS V14.01,2013-09-25 15:47:00,
2013-09-25 11:52:00,67.7,51.0,29.92,ESE,117,3.0,4.0,55,0.00,,---,0.00,VWS V14.01,2013-09-25 15:52:00,
2013-09-25 11:57:00,67.9,52.1,29.92,ESE,113,4.0,5.0,57,0.00,,---,0.00,VWS V14.01,2013-09-25 15:57:00,
2013-09-25 12:02:00,68.2,52.4,29.92,SE,132,1.0,3.0,57,0.00,,---,0.00,VWS V14.01,2013-09-25 16:02:00,
2013-09-25 12:07:00,68.6,53.2,29.92,ESE,111,2.0,7.0,58,0.00,,---,0.00,VWS V14.01,2013-09-25 16:07:00,
2013-09-25 12:12:00,68.5,53.6,29.91,SE,132,2.0,7.0,59,0.00,,---,0.00,VWS V14.01,2013-09-25 16:12:00,
2013-09-25 12:17:00,68.9,53.1,29.91,East,83,1.0,7.0,57,0.00,,---,0.00,VWS V14.01,2013-09-25 16:17:00,
2013-09-25 12:22:00,69.3,54.8,29.91,ESE,103,5.0,9.0,60,0.00,,---,0.00,VWS V14.01,2013-09-25 16:22:00,
2013-09-25 12:27:00,69.0,54.5,29.91,NW,326,1.0,9.0,60,0.00,,---,0.00,VWS V14.01,2013-09-25 16:27:00,
2013-09-25 12:32:00,69.1,54.2,29.91,SE,139,0.0,1.0,59,0.00,,---,0.00,VWS V14.01,2013-09-25 16:32:00,
2013-09-25 12:37:00,70.0,55.0,29.90,ESE,104,3.0,4.0,59,0.00,,---,0.00,VWS V14.01,2013-09-25 16:37:00,
2013-09-25 12:42:00,69.8,55.3,29.90,NNW,342,0.0,8.0,60,0.00,,---,0.00,VWS V14.01,2013-09-25 16:42:00,
2013-09-25 12:47:00,69.8,55.3,29.90,SSW,210,0.0,8.0,60,0.00,,---,0.00,VWS V14.01,2013-09-25 16:47:00,
2013-09-25 12:52:00,69.9,55.4,29.90,South,171,1.0,8.0,60,0.00,,---,0.00,VWS V14.01,2013-09-25 16:52:00,
2013-09-25 12:57:00,70.0,55.5,29.90,SE,136,1.0,8.0,60,0.00,,---,0.00,VWS V14.01,2013-09-25 16:57:00,
2013-09-25 13:02:00,69.8,55.3,29.90,East,80,3.0,5.0,60,0.00,,---,0.00,VWS V14.01,2013-09-25 17:02:00,
2013-09-25 13:07:00,69.7,55.2,29.90,SSW,198,4.0,5.0,60,0.00,,---,0.00,VWS V14.01,2013-09-25 17:07:00,
2013-09-25 13:12:00,70.5,56.0,29.90,East,86,3.0,5.0,60,0.00,,---,0.00,VWS V14.01,2013-09-25 17:12:00,
2013-09-25 13:17:00,70.9,56.3,29.90,ESE,105,0.0,5.0,60,0.00,,---,0.00,VWS V14.01,2013-09-25 17:17:00,
2013-09-25 13:22:00,70.5,56.0,29.90,South,181,3.0,6.0,60,0.00,,---,0.00,VWS V14.01,2013-09-25 17:22:00,
2013-09-25 13:27:00,70.5,56.0,29.90,South,170,1.0,6.0,60,0.00,,---,0.00,VWS V14.01,2013-09-25 17:27:00,
2013-09-25 13:32:00,70.2,55.2,29.90,NE,50,4.0,4.0,59,0.00,,---,0.00,VWS V14.01,2013-09-25 17:32:00,
2013-09-25 13:37:00,69.9,55.4,29.89,East,84,0.0,4.0,60,0.00,,---,0.00,VWS V14.01,2013-09-25 17:37:00,
2013-09-25 13:42:00,70.6,56.1,29.90,SE,135,0.0,4.0,60,0.00,,---,0.00,VWS V14.01,2013-09-25 17:42:00,
2013-09-25 13:47:00,71.2,56.2,29.90,East,82,0.0,4.0,59,0.00,,---,0.00,VWS V14.01,2013-09-25 17:47:00,
2013-09-25 13:52:00,72.3,57.2,29.90,ESE,120,3.0,4.0,59,0.00,,---,0.00,VWS V14.01,2013-09-25 17:52:00,
2013-09-25 13:57:00,72.8,57.2,29.89,East,101,0.0,4.0,58,0.00,,---,0.00,VWS V14.01,2013-09-25 17:57:00,
2013-09-25 14:02:00,73.4,57.7,29.89,SE,131,0.0,3.0,58,0.00,,---,0.00,VWS V14.01,2013-09-25 18:02:00,
2013-09-25 14:07:00,73.6,57.9,29.89,West,274,0.0,3.0,58,0.00,,---,0.00,VWS V14.01,2013-09-25 18:07:00,
2013-09-25 14:12:00,73.3,56.7,29.89,SSE,156,1.0,3.0,56,0.00,,---,0.00,VWS V14.01,2013-09-25 18:12:00,
2013-09-25 14:17:00,73.4,56.8,29.88,ENE,77,0.0,4.0,56,0.00,,---,0.00,VWS V14.01,2013-09-25 18:17:00,
2013-09-25 14:22:00,73.6,57.9,29.88,ENE,69,0.0,4.0,58,0.00,,---,0.00,VWS V14.01,2013-09-25 18:22:00,
2013-09-25 14:27:00,73.7,58.5,29.88,East,95,0.0,4.0,59,0.00,,---,0.00,VWS V14.01,2013-09-25 18:27:00,
2013-09-25 14:32:00,74.5,58.8,29.88,SE,140,3.0,3.0,58,0.00,,---,0.00,VWS V14.01,2013-09-25 18:32:00,
2013-09-25 14:37:00,74.8,58.1,29.88,SSE,150,0.0,5.0,56,0.00,,---,0.00,VWS V14.01,2013-09-25 18:37:00,
2013-09-25 14:42:00,75.0,57.8,29.88,SE,142,1.0,5.0,55,0.00,,---,0.00,VWS V14.01,2013-09-25 18:42:00,
2013-09-25 14:47:00,74.9,57.2,29.87,ENE,73,3.0,6.0,54,0.00,,---,0.00,VWS V14.01,2013-09-25 18:47:00,
2013-09-25 14:52:00,74.1,56.4,29.87,ENE,63,0.0,6.0,54,0.00,,---,0.00,VWS V14.01,2013-09-25 18:52:00,
2013-09-25 14:57:00,73.4,56.8,29.87,SE,134,2.0,6.0,56,0.00,,---,0.00,VWS V14.01,2013-09-25 18:57:00,
2013-09-25 15:02:00,72.9,56.3,29.87,ESE,118,2.0,3.0,56,0.00,,---,0.00,VWS V14.01,2013-09-25 19:02:00,
2013-09-25 15:07:00,72.8,55.7,29.87,NNW,332,0.0,5.0,55,0.00,,---,0.00,VWS V14.01,2013-09-25 19:07:00,
2013-09-25 15:12:00,73.5,56.9,29.87,ENE,60,4.0,6.0,56,0.00,,---,0.00,VWS V14.01,2013-09-25 19:12:00,
2013-09-25 15:17:00,73.0,56.4,29.86,ESE,121,1.0,9.0,56,0.00,,---,0.00,VWS V14.01,2013-09-25 19:17:00,
2013-09-25 15:22:00,72.9,55.8,29.86,NE,55,0.0,9.0,55,0.00,,---,0.00,VWS V14.01,2013-09-25 19:22:00,
2013-09-25 15:27:00,73.0,56.4,29.86,ESE,122,1.0,9.0,56,0.00,,---,0.00,VWS V14.01,2013-09-25 19:27:00,
2013-09-25 15:32:00,73.1,56.5,29.86,West,273,2.0,3.0,56,0.00,,---,0.00,VWS V14.01,2013-09-25 19:32:00,
2013-09-25 15:37:00,73.2,56.1,29.86,East,86,1.0,3.0,55,0.00,,---,0.00,VWS V14.01,2013-09-25 19:37:00,
2013-09-25 15:42:00,73.1,56.5,29.86,West,271,0.0,3.0,56,0.00,,---,0.00,VWS V14.01,2013-09-25 19:42:00,
2013-09-25 15:47:00,73.1,56.5,29.86,ENE,65,0.0,3.0,56,0.00,,---,0.00,VWS V14.01,2013-09-25 19:47:00,
2013-09-25 15:52:00,73.1,55.5,29.86,SSE,163,0.0,3.0,54,0.00,,---,0.00,VWS V14.01,2013-09-25 19:52:00,
2013-09-25 15:57:00,73.2,56.1,29.86,SSW,212,0.0,3.0,55,0.00,,---,0.00,VWS V14.01,2013-09-25 19:57:00,
2013-09-25 16:02:00,73.4,55.2,29.86,SSW,213,0.0,0.0,53,0.00,,---,0.00,VWS V14.01,2013-09-25 20:02:00,
2013-09-25 16:07:00,73.7,57.0,29.85,SSW,213,0.0,0.0,56,0.00,,---,0.00,VWS V14.01,2013-09-25 20:07:00,
2013-09-25 16:12:00,74.2,57.0,29.85,South,185,0.0,0.0,55,0.00,,---,0.00,VWS V14.01,2013-09-25 20:12:00,
2013-09-25 16:17:00,74.2,56.5,29.85,ESE,111,1.0,3.0,54,0.00,,---,0.00,VWS V14.01,2013-09-25 20:17:00,
2013-09-25 16:22:00,74.1,55.9,29.85,SE,132,0.0,3.0,53,0.00,,---,0.00,VWS V14.01,2013-09-25 20:22:00,
2013-09-25 16:27:00,74.4,55.7,29.85,SE,132,0.0,3.0,52,0.00,,---,0.00,VWS V14.01,2013-09-25 20:27:00,
2013-09-25 16:32:00,74.4,56.7,29.85,SE,139,0.0,0.0,54,0.00,,---,0.00,VWS V14.01,2013-09-25 20:32:00,
2013-09-25 16:37:00,74.0,56.3,29.85,SE,139,0.0,1.0,54,0.00,,---,0.00,VWS V14.01,2013-09-25 20:37:00,
2013-09-25 16:42:00,73.6,56.5,29.85,SE,139,0.0,1.0,55,0.00,,---,0.00,VWS V14.01,2013-09-25 20:42:00,
2013-09-25 16:47:00,73.2,57.1,29.85,SE,139,0.0,1.0,57,0.00,,---,0.00,VWS V14.01,2013-09-25 20:47:00,
2013-09-25 16:52:00,72.9,57.3,29.85,SE,138,0.0,1.0,58,0.00,,---,0.00,VWS V14.01,2013-09-25 20:52:00,
2013-09-25 16:57:00,72.6,57.5,29.85,SE,138,0.0,1.0,59,0.00,,---,0.00,VWS V14.01,2013-09-25 20:57:00,
2013-09-25 17:02:00,72.6,57.0,29.85,SE,127,0.0,1.0,58,0.00,,---,0.00,VWS V14.01,2013-09-25 21:02:00,
2013-09-25 17:07:00,72.4,56.8,29.85,ESE,118,0.0,1.0,58,0.00,,---,0.00,VWS V14.01,2013-09-25 21:07:00,
2013-09-25 17:12:00,72.5,56.4,29.85,SE,142,0.0,1.0,57,0.00,,---,0.00,VWS V14.01,2013-09-25 21:12:00,
2013-09-25 17:17:00,72.4,55.8,29.85,East,97,0.0,1.0,56,0.00,,---,0.00,VWS V14.01,2013-09-25 21:17:00,
2013-09-25 17:22:00,72.2,56.6,29.85,East,97,0.0,1.0,58,0.00,,---,0.00,VWS V14.01,2013-09-25 21:22:00,
2013-09-25 17:27:00,72.1,56.5,29.85,East,95,0.0,1.0,58,0.00,,---,0.00,VWS V14.01,2013-09-25 21:27:00,
2013-09-25 17:32:00,71.9,56.3,29.85,East,94,0.0,0.0,58,0.00,,---,0.00,VWS V14.01,2013-09-25 21:32:00,
2013-09-25 17:37:00,71.8,56.2,29.85,East,94,0.0,0.0,58,0.00,,---,0.00,VWS V14.01,2013-09-25 21:37:00,
2013-09-25 17:42:00,71.7,55.7,29.85,East,95,0.0,0.0,57,0.00,,---,0.00,VWS V14.01,2013-09-25 21:42:00,
2013-09-25 17:47:00,71.5,56.9,29.85,East,94,0.0,1.0,60,0.00,,---,0.00,VWS V14.01,2013-09-25 21:47:00,
2013-09-25 17:52:00,71.1,56.5,29.85,East,93,0.0,1.0,60,0.00,,---,0.00,VWS V14.01,2013-09-25 21:52:00,
2013-09-25 17:57:00,70.2,55.7,29.85,East,94,0.0,1.0,60,0.00,,---,0.00,VWS V14.01,2013-09-25 21:57:00,
2013-09-25 18:02:00,69.2,54.7,29.85,East,94,0.0,0.0,60,0.00,,---,0.00,VWS V14.01,2013-09-25 22:02:00,
2013-09-25 18:07:00,68.1,53.7,29.85,East,95,0.0,0.0,60,0.00,,---,0.00,VWS V14.01,2013-09-25 22:07:00,
2013-09-25 18:12:00,67.1,52.3,29.85,East,94,0.0,0.0,59,0.00,,---,0.00,VWS V14.01,2013-09-25 22:12:00,
2013-09-25 18:17:00,66.4,51.7,29.86,East,95,0.0,0.0,59,0.00,,---,0.00,VWS V14.01,2013-09-25 22:17:00,
2013-09-25 18:22:00,65.6,50.4,29.86,East,95,0.0,0.0,58,0.00,,---,0.00,VWS V14.01,2013-09-25 22:22:00,
2013-09-25 18:27:00,64.9,49.3,29.85,East,95,0.0,0.0,57,0.00,,---,0.00,VWS V14.01,2013-09-25 22:27:00,
2013-09-25 18:32:00,64.3,47.8,29.85,East,95,0.0,0.0,55,0.00,,---,0.00,VWS V14.01,2013-09-25 22:32:00,
2013-09-25 18:37:00,63.7,46.3,29.85,East,94,0.0,0.0,53,0.00,,---,0.00,VWS V14.01,2013-09-25 22:37:00,
2013-09-25 18:42:00,63.2,44.3,29.86,East,94,0.0,0.0,50,0.00,,---,0.00,VWS V14.01,2013-09-25 22:42:00,
2013-09-25 18:47:00,62.8,41.2,29.86,East,95,0.0,0.0,45,0.00,,---,0.00,VWS V14.01,2013-09-25 22:47:00,
2013-09-25 18:52:00,62.5,38.5,29.86,East,94,0.0,0.0,41,0.00,,---,0.00,VWS V14.01,2013-09-25 22:52:00,
2013-09-25 18:57:00,62.2,36.3,29.86,East,95,0.0,0.0,38,0.00,,---,0.00,VWS V14.01,2013-09-25 22:57:00,
2013-09-25 19:02:00,61.8,32.4,29.86,East,95,0.0,0.0,33,0.00,,---,0.00,VWS V14.01,2013-09-25 23:02:00,
2013-09-25 19:07:00,61.6,29.1,29.86,East,94,0.0,0.0,29,0.00,,---,0.00,VWS V14.01,2013-09-25 23:07:00,
2013-09-25 19:12:00,61.2,27.9,29.86,East,94,0.0,0.0,28,0.00,,---,0.00,VWS V14.01,2013-09-25 23:12:00,
2013-09-25 19:17:00,60.9,24.9,29.86,East,94,0.0,0.0,25,0.00,,---,0.00,VWS V14.01,2013-09-25 23:17:00,
2013-09-25 19:22:00,60.7,20.6,29.86,East,93,0.0,0.0,21,0.00,,---,0.00,VWS V14.01,2013-09-25 23:22:00,
2013-09-25 19:27:00,60.5,14.1,29.86,East,93,0.0,0.0,16,0.00,,---,0.00,VWS V14.01,2013-09-25 23:27:00,
2013-09-25 19:32:00,60.3,10.9,29.87,East,93,0.0,0.0,14,0.00,,---,0.00,VWS V14.01,2013-09-25 23:32:00,
2013-09-25 19:37:00,60.1,7.3,29.87,East,94,0.0,0.0,12,0.00,,---,0.00,VWS V14.01,2013-09-25 23:37:00,
2013-09-25 19:42:00,60.0,-1.5,29.87,East,94,0.0,0.0,8,0.00,,---,0.00,VWS V14.01,2013-09-25 23:42:00,
2013-09-25 19:47:00,59.9,-15.7,29.88,East,94,0.0,0.0,4,0.00,,---,0.00,VWS V14.01,2013-09-25 23:47:00,
2013-09-25 19:53:00,59.8,-28.9,29.87,East,94,0.0,0.0,2,0.00,,---,0.00,VWS V14.01,2013-09-25 23:53:00,
2013-09-25 19:58:00,59.7,-41.2,29.88,East,95,0.0,0.0,1,0.00,,---,0.00,VWS V14.01,2013-09-25 23:58:00,
2013-09-25 20:03:00,59.7,0.0,29.88,East,95,0.0,0.0,0,0.00,,---,0.00,VWS V14.01,2013-09-26 00:03:00,
2013-09-25 20:08:00,59.7,0.0,29.88,East,94,0.0,0.0,0,0.00,,---,0.00,VWS V14.01,2013-09-26 00:08:00,
2013-09-25 20:13:00,59.6,0.0,29.88,East,95,0.0,0.0,0,0.00,,---,0.00,VWS V14.01,2013-09-26 00:13:00,
2013-09-25 20:18:00,59.6,0.0,29.88,East,95,0.0,0.0,0,0.00,,---,0.00,VWS V14.01,2013-09-26 00:18:00,
2013-09-25 20:23:00,59.5,0.0,29.88,East,95,0.0,0.0,0,0.00,,---,0.00,VWS V14.01,2013-09-26 00:23:00,
2013-09-25 20:28:00,59.3,0.0,29.88,East,95,0.0,0.0,0,0.00,,---,0.00,VWS V14.01,2013-09-26 00:28:00,
2013-09-25 20:33:00,59.2,0.0,29.89,East,94,0.0,0.0,0,0.00,,---,0.00,VWS V14.01,2013-09-26 00:33:00,
2013-09-25 20:38:00,59.2,0.0,29.89,East,94,0.0,0.0,0,0.00,,---,0.00,VWS V14.01,2013-09-26 00:38:00,
2013-09-25 20:43:00,59.1,0.0,29.89,East,94,0.0,0.0,0,0.00,,---,0.00,VWS V14.01,2013-09-26 00:43:00,
2013-09-25 20:48:00,59.1,0.0,29.89,East,95,0.0,0.0,0,0.00,,---,0.00,VWS V14.01,2013-09-26 00:48:00,
2013-09-25 20:53:00,59.1,0.0,29.89,East,95,0.0,0.0,0,0.00,,---,0.00,VWS V14.01,2013-09-26 00:53:00,
2013-09-25 20:58:00,59.1,0.0,29.90,East,95,0.0,0.0,0,0.00,,---,0.00,VWS V14.01,2013-09-26 00:58:00,
2013-09-25 21:03:00,59.0,0.0,29.90,East,95,0.0,0.0,0,0.00,,---,0.00,VWS V14.01,2013-09-26 01:03:00,
2013-09-25 21:08:00,59.0,0.0,29.90,East,95,0.0,0.0,0,0.00,,---,0.00,VWS V14.01,2013-09-26 01:08:00,
2013-09-25 21:13:00,58.9,0.0,29.90,East,95,0.0,0.0,0,0.00,,---,0.00,VWS V14.01,2013-09-26 01:13:00,
2013-09-25 21:18:00,58.9,0.0,29.90,East,95,0.0,0.0,0,0.00,,---,0.00,VWS V14.01,2013-09-26 01:18:00,
2013-09-25 21:23:00,58.9,0.0,29.90,East,95,0.0,0.0,0,0.00,,---,0.00,VWS V14.01,2013-09-26 01:23:00,
2013-09-25 21:28:00,58.9,0.0,29.90,East,95,0.0,0.0,0,0.00,,---,0.00,VWS V14.01,2013-09-26 01:28:00,
2013-09-25 21:33:00,58.8,0.0,29.90,East,95,0.0,0.0,0,0.00,,---,0.00,VWS V14.01,2013-09-26 01:33:00,
2013-09-25 21:38:00,58.8,0.0,29.90,East,94,0.0,0.0,0,0.00,,---,0.00,VWS V14.01,2013-09-26 01:38:00,
2013-09-25 21:43:00,58.7,0.0,29.90,East,95,0.0,0.0,0,0.00,,---,0.00,VWS V14.01,2013-09-26 01:43:00,
2013-09-25 21:48:00,58.7,0.0,29.90,East,95,0.0,0.0,0,0.00,,---,0.00,VWS V14.01,2013-09-26 01:48:00,
2013-09-25 21:53:00,58.6,0.0,29.90,East,94,0.0,0.0,0,0.00,,---,0.00,VWS V14.01,2013-09-26 01:53:00,
2013-09-25 21:58:00,58.6,0.0,29.91,East,95,0.0,0.0,0,0.00,,---,0.00,VWS V14.01,2013-09-26 01:58:00,
2013-09-25 22:03:00,58.6,0.0,29.90,East,94,0.0,0.0,0,0.00,,---,0.00,VWS V14.01,2013-09-26 02:03:00,
2013-09-25 22:08:00,58.6,0.0,29.91,East,95,0.0,0.0,0,0.00,,---,0.00,VWS V14.01,2013-09-26 02:08:00,
2013-09-25 22:13:00,58.5,0.0,29.91,East,95,0.0,0.0,0,0.00,,---,0.00,VWS V14.01,2013-09-26 02:13:00,
2013-09-25 22:18:00,58.4,0.0,29.91,East,94,0.0,0.0,0,0.00,,---,0.00,VWS V14.01,2013-09-26 02:18:00,
2013-09-25 22:23:00,58.2,0.0,29.90,East,94,0.0,0.0,0,0.00,,---,0.00,VWS V14.01,2013-09-26 02:23:00,
2013-09-25 22:28:00,58.1,0.0,29.90,East,93,0.0,0.0,0,0.00,,---,0.00,VWS V14.01,2013-09-26 02:28:00,
2013-09-25 22:33:00,57.9,0.0,29.90,East,94,0.0,0.0,0,0.00,,---,0.00,VWS V14.01,2013-09-26 02:33:00,
2013-09-25 22:38:00,57.8,0.0,29.90,East,94,0.0,0.0,0,0.00,,---,0.00,VWS V14.01,2013-09-26 02:38:00,
2013-09-25 22:43:00,57.6,0.0,29.91,East,94,0.0,0.0,0,0.00,,---,0.00,VWS V14.01,2013-09-26 02:43:00,
2013-09-25 22:48:00,57.4,0.0,29.91,East,93,0.0,0.0,0,0.00,,---,0.00,VWS V14.01,2013-09-26 02:48:00,
2013-09-25 22:53:00,57.3,0.0,29.91,East,94,0.0,0.0,0,0.00,,---,0.00,VWS V14.01,2013-09-26 02:53:00,
2013-09-25 22:58:00,57.2,0.0,29.91,East,94,0.0,0.0,0,0.00,,---,0.00,VWS V14.01,2013-09-26 02:58:00,
2013-09-25 23:03:00,57.2,0.0,29.91,East,94,0.0,0.0,0,0.00,,---,0.00,VWS V14.01,2013-09-26 03:03:00,
2013-09-25 23:08:00,57.1,0.0,29.91,East,94,0.0,0.0,0,0.00,,---,0.00,VWS V14.01,2013-09-26 03:08:00,
2013-09-25 23:13:00,57.1,0.0,29.91,East,93,0.0,0.0,0,0.00,,---,0.00,VWS V14.01,2013-09-26 03:13:00,
2013-09-25 23:18:00,57.2,0.0,29.92,East,93,0.0,0.0,0,0.00,,---,0.00,VWS V14.01,2013-09-26 03:18:00,
2013-09-25 23:23:00,57.2,0.0,29.92,East,94,0.0,0.0,0,0.00,,---,0.00,VWS V14.01,2013-09-26 03:23:00,
2013-09-25 23:28:00,57.2,0.0,29.92,East,93,0.0,0.0,0,0.00,,---,0.00,VWS V14.01,2013-09-26 03:28:00,
2013-09-25 23:34:00,57.2,0.0,29.92,East,94,0.0,0.0,0,0.00,,---,0.00,VWS V14.01,2013-09-26 03:34:00,
2013-09-25 23:38:00,57.3,0.0,29.92,East,94,0.0,0.0,0,0.00,,---,0.00,VWS V14.01,2013-09-26 03:38:00,
2013-09-25 23:43:00,57.3,0.0,29.92,East,94,0.0,0.0,0,0.00,,---,0.00,VWS V14.01,2013-09-26 03:43:00,
2013-09-25 23:48:00,57.4,0.0,29.91,East,94,0.0,0.0,0,0.00,,---,0.00,VWS V14.01,2013-09-26 03:48:00,
2013-09-25 23:53:00,57.5,0.0,29.92,East,93,0.0,0.0,0,0.00,,---,0.00,VWS V14.01,2013-09-26 03:53:00,
2013-09-25 23:58:00,57.6,0.0,29.92,East,94,0.0,0.0,0,0.00,,---,0.00,VWS V14.01,2013-09-26 03:58:00,